Location: Pasadena-CA
(34.1440°N, 118.1100°W)
Time: 23:28:20
(UTC-07:00)

Oscar 19 - Pass Details

Date: 01 July 2022
Orbit: 773 x 790 km, 98.8° (Epoch: 14 August)

Event Time Altitude Azimuth Distance (km) Brightness Sun altitude
Rises 05:09:43 0° 0° (N) 3,255 14.4 -7.0°
Reaches altitude 10° 05:12:16 10° 350° (N) 2,323 13.4 -6.5°
Maximum altitude 05:16:39 29° 291° (WNW) 1,378 11.6 -5.8°
Drops below altitude 10° 05:21:00 10° 232° (SW) 2,313 12.4 -5.0°
Enters shadow 05:22:15 - 226° (SW) 2,755 12.8 -4.8°
